This is the latest recevied weather packets stored in our database for station/object SA3ARQ-13. If no packets are shown the sender has not sent any weather packets the latest 10 day(s).
| Time | Temp. | Humidity | Pressure | Rain* | Wind** | Luminosity | Snow |
|---|---|---|---|---|---|---|---|
| 1777629126 | 22.22° C | 42% | 1018.6 hPa | - | - | - | - |
| 1777628226 | 22.22° C | 42% | 1018.5 hPa | - | - | - | - |
| 1777627326 | 22.22° C | 41% | 1018.5 hPa | - | - | - | - |
| 1777626426 | 21.67° C | 41% | 1018.8 hPa | - | - | - | - |
| 1777625525 | 21.11° C | 40% | 1018.9 hPa | - | - | - | - |
| 1777624625 | 21.11° C | 40% | 1018.9 hPa | - | - | - | - |
| 1777623725 | 20.56° C | 39% | 1019.1 hPa | - | - | - | - |
| 1777622824 | 19.44° C | 40% | 1019.3 hPa | - | - | - | - |
| 1777621925 | 19.44° C | 40% | 1019.3 hPa | - | - | - | - |
| 1777621025 | 18.89° C | 40% | 1019.6 hPa | - | - | - | - |
| 1777620125 | 18.89° C | 41% | 1019.8 hPa | - | - | - | - |
| 1777619225 | 18.33° C | 41% | 1020 hPa | - | - | - | - |
| 1777618325 | 16.67° C | 42% | 1020.2 hPa | - | - | - | - |
| 1777617425 | 16.11° C | 42% | 1020.4 hPa | - | - | - | - |
| 1777616525 | 15.56° C | 42% | 1020.6 hPa | - | - | - | - |
| 1777615625 | 15° C | 43% | 1020.7 hPa | - | - | - | - |
| 1777614725 | 14.44° C | 44% | 1020.8 hPa | - | - | - | - |
| 1777613825 | 13.33° C | 44% | 1021 hPa | - | - | - | - |
| 1777612925 | 12.78° C | 45% | 1021.1 hPa | - | - | - | - |
| 1777612025 | 12.22° C | 46% | 1021.1 hPa | - | - | - | - |
| 1777611125 | 11.67° C | 46% | 1021.2 hPa | - | - | - | - |
| 1777610225 | 11.11° C | 47% | 1021.3 hPa | - | - | - | - |
| 1777609325 | 10.56° C | 47% | 1021.3 hPa | - | - | - | - |
| 1777608425 | 10° C | 48% | 1021.4 hPa | - | - | - | - |
| 1777607525 | 10° C | 48% | 1021.6 hPa | - | - | - | - |
* Rain since midnight (hover to see other rain measurements)
** Current wind speed in m/s (hover to see current wind gust speed)